Regional Weather Roundup
Issued by NWS

Home | Current Version | Previous Version | Graphics & Text | Print | Product List | Glossary On
Versions: 1 2 3 4 5 6 7 8 9 10 11 12 13 14 15 16 17 18 19 20 21 22 23 24 25 26 27 28 29 30 31 32 33 34 35 36 37 38 39 40 41 42 43 44 45 46 47 48 49 50
000
ASUS43 KIND 160259
RWRIN

WEATHER ROUNDUP FOR INDIANA
NATIONAL WEATHER SERVICE INDIANAPOLIS IN
1100 PM EDT TUE APR 15 2014

NOTE: "FAIR" INDICATES FEW OR NO CLOUDS BELOW 12,000 FEET WITH NO
SIGNIFICANT WEATHER AND/OR OBSTRUCTIONS TO VISIBILITY.

* - STATION DOES NOT REPORT WEATHER SUCH AS PRECIPITATION OR FOG.

+ - STATION NOT QUALITY CONTROLLED BY THE NATIONAL WEATHER SERVICE.
    USE DATA WITH CAUTION...ESPECIALLY DEWPOINT AND RELATIVE
    HUMIDITY OBSERVATIONS.

INZ001>003-010>013-019-020-160400-
NORTHWEST INDIANA

CITY           SKY/WX    TMP DP  RH WIND       PRES   REMARKS
MONTICELLO +   CLEAR     32  18  57 CALM      30.23R
VALPARAISO     CLEAR     28  15  58 SE3       30.22R

$$

LMZ046-743>745-160400-
SOUTHERN LAKE MICHIGAN

STATION/POSITION TIME  TEMP WIND        PRES
                       AIR  DIR/SP/G
                 (UTC) (F)  (DEG/KT/KT) (MB)
MICHIGAN CITY    0200   31   70/  3/  4   N/A

$$

INZ004-005-014>016-021>024-160400-
NORTH CENTRAL INDIANA

CITY           SKY/WX    TMP DP  RH WIND       PRES   REMARKS
GOSHEN         CLEAR     27  16  63 E3        30.23R
SOUTH BEND     CLEAR     30  13  49 CALM      30.23

$$

INZ006>009-017-018-025>027-160400-
NORTHEAST INDIANA

CITY           SKY/WX    TMP DP  RH WIND       PRES   REMARKS
ANGOLA *+      CLEAR     27  19  74 CALM      30.23R
FORT WAYNE     CLEAR     29  11  47 SE3       30.25R

$$

INZ028-029-035-036-043>045-051>053-160400-
WEST CENTRAL INDIANA

CITY           SKY/WX    TMP DP  RH WIND       PRES   REMARKS
GREENCASTLE +  CLEAR     30  21  69 CALM      30.24S
LAFAYETTE      CLEAR     28  19  69 CALM      30.24R
TERRE HAUTE    CLEAR     32  26  78 CALM      30.24R

$$

INZ030>032-037>040-046>048-054>057-064-065-160400-
CENTRAL INDIANA

CITY           SKY/WX    TMP DP  RH WIND       PRES   REMARKS
INDIANAPOLIS   CLEAR     32  16  51 CALM      30.23R
-EAGLE CREEK   CLEAR     31  17  56 E3        30.23R
KOKOMO *+      CLEAR     28  19  69 SE3       30.24R
MT COMFORT *+  CLEAR     30  25  80 CALM      30.24S
SHELBYVILLE    CLEAR     32  23  69 E5        30.24S WCI  27

$$

INZ033-034-041-042-049-050-058-059-160400-
EAST CENTRAL INDIANA

CITY           SKY/WX    TMP DP  RH WIND       PRES   REMARKS
MUNCIE         CLEAR     27  19  72 E5        30.24R WCI  22

$$

INZ060-061-067>069-081>083-085>088-160400-
SOUTHWEST INDIANA

CITY           SKY/WX    TMP DP  RH WIND       PRES   REMARKS
EVANSVILLE     CLEAR     37  27  67 CALM      30.26R
HUNTINGBURG *+ CLEAR     36  19  51 E5        30.25S

$$

INZ062-063-066-070>080-084-089>092-160400-
SOUTH CENTRAL AND SOUTHEAST INDIANA

CITY           SKY/WX    TMP DP  RH WIND       PRES   REMARKS
BLOOMINGTON    CLEAR     29  22  75 CALM      30.24R

$$




USA.gov is the U.S. government's official web portal to all federal, state and local government web resources and services.